Regional Weather Roundup
Issued by NWS

Home | Current Version | Previous Version | Graphics & Text | Print | Product List | Glossary On
Versions: 1 2 3 4 5 6 7 8 9 10 11 12 13 14 15 16 17 18 19 20 21 22 23 24 25 26 27 28 29 30 31 32 33 34 35 36 37 38 39 40 41 42 43 44 45 46 47 48 49 50
821
ASUS43 KLMK 251610
RWRKY
KENTUCKY REGIONAL WEATHER ROUNDUP
NATIONAL WEATHER SERVICE LOUISVILLE KY
1200 PM EDT SAT MAR 25 2017

NOTE "FAIR" INDICATES FEW OR NO CLOUDS BELOW 12,000 FEET
WITH NO SIGNIFICANT WEATHER AND/OR OBSTRUCTIONS TO VISIBILITY.

KYZ001>023-026-027-061>063-070>075-251700-
WESTERN AND SOUTH CENTRAL KENTUCKY

CITY           SKY/WX    TMP DP  RH WIND       PRES   REMARKS
PADUCAH        CLOUDY    65  55  70 S18G28    29.95R
HENDERSON      CLOUDY    66  54  63 SE13G20   29.95F
OWENSBORO      CLOUDY    71  55  56 S21       30.00F
HOPKINSVILLE   CLOUDY    70  52  52 S21G30    30.00F
BOWLING GREEN  CLOUDY    73  50  44 S26G38    30.07F
GLASGOW        SUNNY     73  50  45 S17G26    30.10S
$$

KYZ024-025-028>034-038-045-046-053-251700-
NORTH CENTRAL KENTUCKY

CITY           SKY/WX    TMP DP  RH WIND       PRES   REMARKS
LOUISVILLE/SDF CLOUDY    74  49  41 S18       30.07F
LOUISVILLE/LOU CLOUDY    72  50  45 S15G25    30.09F
FORT KNOX      MOSUNNY   73  51  46 S23G29    30.05F
$$

KYZ035>037-039>044-047>052-055>060-089>105-251700-
NORTHEAST KENTUCKY

CITY           SKY/WX    TMP DP  RH WIND       PRES   REMARKS
LEXINGTON      PTSUNNY   72  49  44 S16       30.15S
COVINGTON      PTSUNNY   69  51  52 S15G24    30.12S
FRANKFORT      MOSUNNY   73  48  41 S18       30.11F
$$

KYZ054-064>069-076>088-106>120-251700-
SOUTHEAST KENTUCKY

CITY           SKY/WX    TMP DP  RH WIND       PRES   REMARKS
JACKSON        CLOUDY    71  47  42 VRB6G18   30.18F
LONDON         SUNNY     70  47  43 S12G20    30.18F
SOMERSET       PTSUNNY   68  46  45 S15G26    30.17F
MIDDLESBORO    SUNNY     69  49  49 SW8G24    30.23S
MONTICELLO     CLOUDY    71  53  52 SE10G16   30.17F
$$





USA.gov is the U.S. government's official web portal to all federal, state and local government web resources and services.